Winslow, AZ

10:32 AM MST on July 21, 2017 (GMT -0700)
Winslow-Lindbergh Regional

Weather History for KINW - February, 2014

Change the Weather History Date:

Saturday, February 1, 2014

  Actual Average Record
Temperature  
Mean Temperature 36 °F 37 °F  
Max Temperature 48 °F 53 °F 74 °F (2003)
Min Temperature 23 °F 22 °F -2 °F (1949)
Degree Days  
Heating Degree Days 29 28  
Month to date heating degree days 29 28  
Since 1 July heating degree days 2849 2831  
Cooling Degree Days 0 0  
Month to date cooling degree days 0 0  
Year to date cooling degree days 0 0  
Moisture  
Dew Point 21 °F    
Average Humidity 57    
Maximum Humidity 81    
Minimum Humidity 33    
Precipitation  
Precipitation T in 0.02 in 0.42 in (1919)
Month to date precipitation T 0.02  
Year to date precipitation T 0.54  
Sea Level Pressure  
Sea Level Pressure 29.89 in    
Wind  
Wind Speed 8 mph (WNW)    
Max Wind Speed 18 mph    
Max Gust Speed 24 mph    
Visibility 10 miles    
Events Rain    
T = Trace of Precipitation, MM = Missing Value Source: NWS Daily Summary

Daily Weather History Graph

Daily Weather History Graph

Search for Another Location

Airport or City:

Trip Planner

Search our weather history database for the weather conditions in past years. The results will help you decide how hot, cold, wet, or windy it might be!

Date:

Astronomy

Feb. 01, 2014 Rise Set
Actual Time 7:21 AM MST 5:51 PM MST
Civil Twilight 6:55 AM MST 6:18 PM MST
Nautical Twilight 6:24 AM MST 6:48 PM MST
Astronomical Twilight 5:54 AM MST 7:18 PM MST
Moon 8:20 AM MST (2/1) 8:23 PM MST (2/1)
Length of Visible Light 11h 23m
Length of Day
10h 30m
Waxing Crescent, 5% of the Moon is Illuminated
Feb 1
Waxing Crescent
Feb 6
First Quarter
Feb 14
Full
Feb 22
Last Quarter
Mar 1
New

Hourly Weather History & Observations

Time (MST) Temp. Windchill Dew Point Humidity Pressure Visibility Wind Dir Wind Speed Gust Speed Precip Events Conditions
12:56 AM 41.0 °F 34.3 °F 28.9 °F 62% 29.73 in 10.0 mi WSW 11.5 mph - N/A   Overcast
1:56 AM 39.0 °F 30.6 °F 28.0 °F 65% 29.75 in 10.0 mi WNW 15.0 mph - N/A   Scattered Clouds
2:56 AM 35.1 °F 27.4 °F 27.0 °F 72% 29.77 in 10.0 mi WNW 10.4 mph - N/A   Mostly Cloudy
3:56 AM 36.0 °F 28.5 °F 26.1 °F 67% 29.79 in 10.0 mi West 10.4 mph - N/A   Overcast
4:56 AM 34.0 °F 27.2 °F 27.0 °F 75% 29.81 in 10.0 mi WSW 8.1 mph - N/A   Mostly Cloudy
5:56 AM 35.1 °F 30.1 °F 25.0 °F 67% 29.83 in 10.0 mi NNW 5.8 mph - N/A   Mostly Cloudy
6:56 AM 30.9 °F - 23.0 °F 72% 29.86 in 10.0 mi Calm Calm - N/A   Clear
7:56 AM 27.0 °F 20.5 °F 21.0 °F 78% 29.89 in 10.0 mi WSW 5.8 mph - N/A   Scattered Clouds
8:56 AM 33.1 °F - 23.0 °F 66% 29.88 in 10.0 mi Calm Calm - N/A   Scattered Clouds
9:56 AM 39.9 °F 36.7 °F 24.1 °F 53% 29.89 in 10.0 mi North 4.6 mph - N/A   Clear
10:56 AM 42.1 °F 36.1 °F 23.0 °F 47% 29.91 in 10.0 mi NW 10.4 mph - 0.00 in Rain Light Rain
11:56 AM 42.1 °F 36.1 °F 21.9 °F 45% 29.88 in 10.0 mi NNW 10.4 mph - 0.00 in   Partly Cloudy
12:56 PM 45.0 °F 39.3 °F 21.0 °F 39% 29.85 in 10.0 mi NNW 11.5 mph 19.6 mph 0.00 in   Mostly Cloudy
1:56 PM 46.0 °F 39.0 °F 19.9 °F 35% 29.84 in 10.0 mi NNW 17.3 mph 24.2 mph 0.00 in Rain Light Rain
2:56 PM 46.0 °F 40.6 °F 18.0 °F 33% 29.85 in 10.0 mi NW 11.5 mph - 0.00 in Rain Light Rain
3:56 PM 46.0 °F 39.9 °F 18.0 °F 33% 29.86 in 10.0 mi NNW 13.8 mph - 0.00 in   Clear
4:56 PM 43.0 °F 37.2 °F 16.0 °F 34% 29.90 in 10.0 mi NW 10.4 mph - N/A   Mostly Cloudy
5:56 PM 39.9 °F 35.1 °F 17.1 °F 40% 29.92 in 10.0 mi NNW 6.9 mph - N/A   Clear
6:56 PM 37.0 °F 31.6 °F 16.0 °F 42% 29.98 in 10.0 mi NNW 6.9 mph - N/A   Partly Cloudy
7:56 PM 32.0 °F 25.6 °F 14.0 °F 48% 30.02 in 10.0 mi NW 6.9 mph - N/A   Clear
8:56 PM 27.0 °F 21.6 °F 12.9 °F 56% 30.04 in 10.0 mi West 4.6 mph - N/A   Clear
9:56 PM 28.0 °F 20.8 °F 15.1 °F 58% 30.03 in 10.0 mi West 6.9 mph - N/A   Mostly Cloudy
10:56 PM 24.1 °F 17.0 °F 14.0 °F 65% 30.04 in 10.0 mi West 5.8 mph - N/A   Partly Cloudy
11:56 PM 24.1 °F 17.0 °F 15.1 °F 69% 30.06 in 10.0 mi West 5.8 mph - N/A   Clear